Observations for Trim Patrick St
| Time | AQI | Temp °C | Hum % | Pres Pa | CO μg/m³ | H₂S μg/m³ | NO μg/m³ | NO₂ μg/m³ | O₃ μg/m³ | SO₂ μg/m³ | PM1 μg/m³ | PM2.5 μg/m³ | PM10 μg/m³ |
|---|---|---|---|---|---|---|---|---|---|---|---|---|---|
| Wednesday 5 August 2026 | |||||||||||||
| 12:53 | 2 | 22.6 | 49 | 69,862 | 0 | 0 | 2.64 | 7.2 | 60.56 | 4.06 | 2 | 6.48 | 7.13 |
| 12:51 | 2 | 22.5 | 50 | 70,101 | 0 | 0 | 2.8 | 7.25 | 62.91 | 3.97 | 2 | 6.41 | 7.05 |
| 12:50 | 2 | 22.4 | 50 | 70,237 | 0 | 0 | 2.8 | 8.09 | 63.54 | 4.42 | 2 | 6.41 | 7.05 |
| 12:48 | 2 | 22.3 | 50 | 70,524 | 0 | 0 | 2.83 | 6.33 | 59.87 | 4.06 | 2 | 6.39 | 7.03 |
| 12:47 | 2 | 22.2 | 51 | 70,684 | 0 | 0 | 2.91 | 10.02 | 75.14 | 4.35 | 2 | 6.36 | 7 |
| 12:46 | 2 | 22.2 | 50 | 70,812 | 0 | 0 | 2.83 | 8.14 | 64.17 | 3.37 | 2 | 6.4 | 7.04 |
| 12:44 | 2 | 22.1 | 51 | 71,236 | 0 | 0 | 2.9 | 7.08 | 63.33 | 4.45 | 2 | 6.36 | 6.99 |
| 12:43 | 2 | 22.1 | 51 | 71,513 | 0 | 0 | 2.94 | 7.94 | 65.39 | 3.74 | 2 | 7.1 | 7.82 |
| 12:41 | 2 | 22 | 51 | 72,014 | 0 | 0 | 2.93 | 7.01 | 63.05 | 3.95 | 2.86 | 7.12 | 7.83 |
| 12:39 | 2 | 21.8 | 52 | 72,301 | 0 | 0 | 2.94 | 7.22 | 62.59 | 3.81 | 2 | 6.29 | 6.92 |
| 12:38 | 2 | 21.8 | 52 | 72,477 | 0 | 0 | 2.95 | 9.39 | 66.58 | 3.4 | 2 | 6.29 | 6.92 |
| 12:37 | 2 | 21.7 | 53 | 72,618 | 0 | 0 | 2.97 | 9.07 | 63 | 3.33 | 2 | 6.24 | 6.87 |
| 12:36 | 2 | 21.6 | 53 | 72,807 | 0 | 0 | 2.96 | 8.43 | 62.64 | 3.89 | 2 | 6.24 | 6.87 |
| 12:35 | 2 | 21.6 | 53 | 72,952 | 0 | 0.07 | 2.93 | 11.27 | 82.37 | 3.78 | 2 | 6.21 | 6.83 |
| 12:34 | 2 | 21.5 | 53 | 73,113 | 0 | 0 | 2.91 | 10.28 | 74.97 | 3.3 | 2.86 | 6.99 | 7.69 |
| 12:33 | 2 | 21.4 | 53 | 73,210 | 0 | 0.61 | 3.01 | 9.78 | 80.69 | 3.7 | 2 | 6.21 | 6.83 |
| 12:32 | 2 | 21.4 | 53 | 73,310 | 0 | 0 | 2.93 | 10.06 | 78.92 | 3.12 | 2 | 6.21 | 6.83 |
| 12:31 | 2 | 21.3 | 53 | 73,414 | 0 | 0 | 2.75 | 8.41 | 66.49 | 3.08 | 2 | 6.24 | 6.86 |
| 12:30 | 2 | 21.3 | 54 | 73,497 | 0 | 0 | 2.89 | 8.32 | 77.05 | 3.48 | 2 | 6.19 | 6.81 |
| 12:29 | 2 | 21.3 | 53 | 73,577 | 0 | 0 | 2.64 | 7.87 | 71.07 | 3.32 | 2 | 6.96 | 7.65 |